Location: C.E.K. Mees Observatory
(42.7003°N, 77.4088°W)
Time: 19:00:42
(UTC-04:00)

Vanguard 2 - All Passes

Search period start: 22 October 2017 00:00
Search period end: 01 November 2017 00:00
Orbit: 554 x 2939 km, 32.9° (Epoch: 22 October)

Date Brightness Start Highest point End Pass type
(mag) Time Alt. Az. Time Alt. Az. Time Alt. Az.
22 Oct - 05:15:22 10° SSE 05:21:57 13° SE 05:28:05 10° ESE visible
22 Oct - 07:18:23 10° SSW 07:32:16 32° SSE 07:42:45 10° E daylight
22 Oct - 09:28:30 10° WSW 09:42:42 47° S 09:51:49 10° ESE daylight
22 Oct - 11:40:53 10° WSW 11:52:15 45° SSW 11:59:14 10° ESE daylight
22 Oct - 13:53:52 10° W 14:00:10 22° SW 14:04:43 10° SSE daylight
23 Oct - 05:29:21 10° S 05:39:49 19° SE 05:49:06 10° ESE visible
23 Oct - 07:35:26 10° SW 07:50:19 38° SSE 08:01:13 10° E daylight
23 Oct - 09:46:28 10° WSW 10:00:48 51° S 10:09:52 10° ESE daylight
23 Oct - 11:59:11 10° W 12:10:11 42° SSW 12:17:00 10° SE daylight
23 Oct - 14:12:53 10° WSW 14:17:43 16° SW 14:21:30 10° S daylight
24 Oct - 05:44:56 10° SSW 05:57:41 25° SSE 06:08:40 10° E visible
24 Oct - 07:52:49 10° SW 08:08:23 44° SSE 08:19:31 10° E daylight
24 Oct - 10:04:33 10° WSW 10:18:53 52° S 10:27:52 10° ESE daylight
24 Oct - 12:17:34 10° W 12:28:00 37° SSW 12:34:39 10° SE daylight
24 Oct - 14:32:59 10° WSW 14:35:10 11° SW 14:37:06 10° SSW daylight
25 Oct - 04:01:41 10° SSE 04:05:30 11° SE 04:09:15 10° ESE visible
25 Oct - 06:01:17 10° SSW 06:15:36 31° SSE 06:27:38 10° E visible
25 Oct - 08:10:28 10° SW 08:26:28 49° SSE 08:37:42 10° E daylight
25 Oct - 10:22:45 10° WSW 10:36:55 52° S 10:45:49 10° ESE daylight
25 Oct - 12:36:03 10° W 12:45:44 31° SSW 12:52:07 10° SSE daylight
26 Oct - 04:13:52 10° S 04:23:11 17° SE 04:32:10 10° ESE visible
26 Oct - 06:18:08 10° SSW 06:33:32 38° SSE 06:46:14 10° E visible
26 Oct - 08:28:20 10° WSW 08:44:35 53° S 08:55:49 10° E daylight
26 Oct - 10:41:01 10° W 10:54:55 50° SSW 11:03:39 10° ESE daylight
26 Oct - 12:54:43 10° W 13:03:20 25° SW 13:09:19 10° SSE daylight
27 Oct - 04:28:56 10° S 04:40:53 23° SE 04:52:17 10° E visible
27 Oct - 06:35:22 10° SW 06:51:32 44° SSE 07:04:38 10° E visible
27 Oct - 08:46:21 10° WSW 09:02:42 56° S 09:13:52 10° ESE daylight
27 Oct - 10:59:21 10° W 11:12:50 46° SSW 11:21:24 10° SE daylight
27 Oct - 13:13:42 10° W 13:20:50 20° SW 13:26:07 10° S daylight
28 Oct - 04:45:00 10° SSW 04:58:37 29° SE 05:11:33 10° E visible
28 Oct - 06:52:52 10° SW 07:09:34 49° SSE 07:22:54 10° E visible
28 Oct - 09:04:29 10° WSW 09:20:48 56° S 09:31:51 10° ESE daylight
28 Oct - 11:17:46 10° W 11:30:40 40° SSW 11:39:00 10° SE daylight
28 Oct - 13:33:24 10° WSW 13:38:12 14° SW 13:42:09 10° SSW daylight
29 Oct - 03:00:07 10° SSE 03:06:37 13° SE 03:13:16 10° ESE visible
29 Oct - 05:01:37 10° SSW 05:16:25 35° SSE 05:30:21 10° E visible
29 Oct - 07:10:36 10° WSW 07:27:39 54° SSE 07:41:05 10° E visible
29 Oct - 09:22:42 10° W 09:38:52 55° S 09:49:47 10° ESE daylight
29 Oct - 11:36:17 10° W 11:48:22 35° SSW 11:56:25 10° SSE daylight
30 Oct - 03:14:05 10° S 03:24:07 19° SE 03:34:35 10° E visible
30 Oct - 05:18:40 10° SW 05:34:17 42° SSE 05:48:53 10° E visible
30 Oct - 07:28:31 10° WSW 07:45:46 57° S 07:59:11 10° E daylight
30 Oct - 09:40:59 10° W 09:56:53 53° SSW 10:07:36 10° ESE daylight
30 Oct - 11:54:59 10° W 12:05:57 28° SW 12:13:34 10° SSE daylight
31 Oct - 03:29:41 10° S 03:41:40 25° SE 03:54:21 10° E visible
31 Oct - 05:36:01 10° SW 05:52:13 48° SSE 06:07:16 10° E visible
31 Oct - 07:46:33 10° WSW 08:03:55 59° S 08:17:16 10° ESE daylight
31 Oct - 09:59:19 10° W 10:14:48 48° SSW 10:25:20 10° SE daylight
31 Oct - 12:13:59 10° W 12:23:23 22° SW 12:30:20 10° S daylight
